www.pogodaiklimat.ru

Погода и климат >> Архив погоды >> Бразилия >> Мараньян >> Сан-Луис


ПОГОДА в Сан-Луисе

  • Прогноз погоды в Сан-Луисе
  • Монитор погоды в Сан-Луисе

АРХИВ ПОГОДЫ в Сан-Луисе

Время (UTC), дата Ветер
(напр.,м/с)
 
Видим.   Явления Облачность Т
(С)
Тd
(С)
f
(%)
Тe
(С)
Тes
(С)
Комфортность P
(гПа)
Po
(гПа)
Тmin
(С)
Tmax
(С)
R
(мм)
R24
(мм)
S
(см)
01 14.09 штиль 0 н/о н/о +26.0 +23.1 84 +35 +35 очень
душно
1013.5 1007.2
02 14.09 штиль 0 н/о н/о +26.0 +23.0 84 +35 +35 очень
душно
1013.9 1007.6
03 14.09 штиль 0 н/о н/о +25.8 +22.6 83 +34 +34 очень
душно
1013.6 1007.3
04 14.09 штиль 0 н/о н/о +25.7 +22.4 82 +34 +34 очень
душно
1012.7 1006.4
05 14.09 штиль 0 н/о н/о +25.6 +22.6 84 +34 +34 очень
душно
1012.4 1006.1
06 14.09 штиль 0 н/о н/о +25.5 +22.5 83 +33 +33 очень
душно
1011.9 1005.6
07 14.09 штиль 0 н/о н/о +25.2 +22.4 84 +33 +33 очень
душно
1011.7 1005.4
08 14.09 штиль 0 н/о н/о +25.2 +22.2 83 +33 +33 очень
душно
1011.8 1005.5
09 14.09 штиль 0 н/о н/о +25.1 +22.2 84 +33 +33 очень
душно
1012.2 1005.9
10 14.09 штиль 0 н/о н/о +25.7 +21.7 79 +33 +33 очень
душно
1012.7 1006.4
11 14.09 штиль 0 н/о н/о +27.5 +21.8 71 +35 +35 очень
душно
1013.3 1007.0
12 14.09 штиль 0 н/о н/о +28.5 +21.8 67 +37 +37 очень
душно
1014.1 1007.8
13 14.09 штиль 0 н/о н/о +29.2 +22.1 66 +38 +38 очень
душно
1014.1 1007.8
14 14.09 штиль 0 н/о н/о +29.8 +22.8 66 +39 +39 очень
душно
1013.8 1007.6
15 14.09 штиль 0 н/о н/о +30.8 +22.5 61 +40 +40 очень
душно
1013.3 1007.1
17 14.09 штиль 0 н/о н/о +31.0 +22.4 60 +40 +40 очень
душно
1011.7 1005.5
18 14.09 штиль 0 н/о н/о +30.2 +22.7 64 +40 +40 очень
душно
1011.0 1004.8
19 14.09 штиль 0 н/о н/о +29.2 +22.1 66 +38 +38 очень
душно
1011.0 1004.8
20 14.09 штиль 0 н/о н/о +28.1 +21.6 68 +36 +36 очень
душно
1011.2 1004.9
21 14.09 штиль 0 н/о н/о +26.9 +22.0 75 +35 +35 очень
душно
1011.5 1005.2
22 14.09 штиль 0 н/о н/о +26.3 +21.9 77 +34 +34 очень
душно
1011.9 1005.6
23 14.09 штиль 0 н/о н/о +26.1 +22.0 78 +34 +34 очень
душно
1012.4 1006.1
00 15.09 штиль 0 н/о н/о +25.8 +22.0 80 +33 +33 очень
душно
1012.8 1006.5
01 15.09 штиль 0 н/о н/о +25.7 +21.8 79 +33 +33 очень
душно
1013.1 1006.8
02 15.09 штиль 0 н/о н/о +25.5 +22.0 81 +33 +33 очень
душно
1013.0 1006.7
03 15.09 штиль 0 н/о н/о +25.4 +22.1 82 +33 +33 очень
душно
1012.6 1006.3
04 15.09 штиль 0 н/о н/о +25.6 +22.3 82 +33 +33 очень
душно
1011.8 1005.5
05 15.09 штиль 0 н/о н/о +25.4 +22.1 82 +33 +33 очень
душно
1011.2 1004.9
06 15.09 штиль 0 н/о н/о +25.3 +22.3 83 +33 +33 очень
душно
1011.0 1004.7
07 15.09 штиль 0 н/о н/о +25.3 +22.5 84 +33 +33 очень
душно
1011.2 1004.9
08 15.09 штиль 0 н/о н/о +25.1 +22.3 84 +33 +33 очень
душно
1011.6 1005.3
09 15.09 штиль 0 н/о н/о +24.9 +22.7 88 +33 +33 очень
душно
1012.2 1005.9
10 15.09 штиль 0 н/о н/о +25.7 +22.6 83 +34 +34 очень
душно
1012.9 1006.6
11 15.09 штиль 0 н/о н/о +27.0 +21.7 73 +35 +35 очень
душно
1013.3 1007.0
12 15.09 штиль 0 н/о н/о +27.6 +21.8 71 +36 +36 очень
душно
1014.3 1008.0
13 15.09 штиль 0 н/о н/о +28.4 +21.8 67 +36 +36 очень
душно
1014.6 1008.3
14 15.09 штиль 0 н/о н/о +29.7 +22.3 65 +39 +39 очень
душно
1014.1 1007.8
15 15.09 штиль 0 н/о н/о +30.1 +22.7 65 +40 +40 очень
душно
1013.1 1006.9
16 15.09 штиль 0 н/о н/о +29.5 +23.6 71 +40 +40 очень
душно
1012.2 1006.0
17 15.09 штиль 0 н/о н/о +27.1 +24.7 87 +39 +39 очень
душно
1011.6 1005.3
18 15.09 штиль 0 н/о н/о +27.3 +23.7 81 +37 +37 очень
душно
1011.3 1005.0
19 15.09 штиль 0 н/о н/о +26.9 +23.6 82 +37 +37 очень
душно
1011.2 1004.9
20 15.09 штиль 0 н/о н/о +26.8 +23.2 81 +36 +36 очень
душно
1010.9 1004.6
21 15.09 штиль 0 н/о н/о +26.4 +23.3 83 +36 +36 очень
душно
1011.1 1004.8
22 15.09 штиль 0 н/о н/о +26.1 +23.3 85 +35 +35 очень
душно
1011.3 1005.0
23 15.09 штиль 0 н/о н/о +26.3 +23.4 84 +36 +36 очень
душно
1011.6 1005.3
01 16.09 штиль 0 н/о н/о +25.9 +23.4 86 +35 +35 очень
душно
1012.4 1006.1
03 16.09 штиль 0 н/о н/о +25.8 +23.4 87 +35 +35 очень
душно
1012.1 1005.8
04 16.09 штиль 0 н/о н/о +25.6 +23.3 87 +34 +34 очень
душно
1011.5 1005.2
05 16.09 штиль 0 н/о н/о +25.5 +23.2 87 +34 +34 очень
душно
1011.1 1004.8
06 16.09 штиль 0 н/о н/о +25.4 +22.9 86 +34 +34 очень
душно
1010.9 1004.6
07 16.09 штиль 0 н/о н/о +25.3 +22.9 87 +34 +34 очень
душно
1011.2 1004.9
08 16.09 штиль 0 н/о н/о +25.4 +22.7 85 +33 +33 очень
душно
1011.5 1005.2
09 16.09 штиль 0 н/о н/о +25.3 +22.8 86 +33 +33 очень
душно
1012.0 1005.7
10 16.09 штиль 0 н/о н/о +26.0 +22.6 82 +34 +34 очень
душно
1012.7 1006.4
11 16.09 штиль 0 н/о н/о +26.8 +22.7 78 +35 +35 очень
душно
1013.3 1007.0
12 16.09 штиль 0 н/о н/о +27.4 +22.8 76 +36 +36 очень
душно
1014.0 1007.7
13 16.09 штиль 0 н/о н/о +28.3 +23.0 73 +38 +38 очень
душно
1014.1 1007.8
14 16.09 штиль 0 н/о н/о +29.5 +22.1 64 +38 +38 очень
душно
1013.9 1007.6
15 16.09 штиль 0 н/о н/о +30.0 +22.0 62 +39 +39 очень
душно
1013.0 1006.8
16 16.09 штиль 0 н/о н/о +30.8 +22.8 62 +40 +40 очень
душно
1011.8 1005.6
17 16.09 штиль 0 н/о н/о +29.8 +23.7 70 +41 +41 опасность
перегрева
1010.9 1004.7
18 16.09 штиль 0 н/о н/о +29.2 +23.8 73 +40 +40 очень
душно
1010.5 1004.3
19 16.09 штиль 0 н/о н/о +29.1 +23.3 71 +39 +39 очень
душно
1010.3 1004.1
20 16.09 штиль 0 н/о н/о +28.0 +22.9 74 +37 +37 очень
душно
1010.4 1004.1
21 16.09 штиль 0 н/о н/о +27.0 +23.0 79 +36 +36 очень
душно
1010.7 1004.4
22 16.09 штиль 0 н/о н/о +26.5 +23.2 82 +36 +36 очень
душно
1011.4 1005.1
23 16.09 штиль 0 н/о н/о +26.3 +23.2 83 +35 +35 очень
душно
1011.9 1005.6
00 17.09 штиль 0 н/о н/о +26.0 +23.0 84 +35 +35 очень
душно
1012.3 1006.0
01 17.09 штиль 0 н/о н/о +25.9 +23.0 84 +35 +35 очень
душно
1012.7 1006.4
02 17.09 штиль 0 н/о н/о +25.8 +23.1 85 +34 +34 очень
душно
1012.7 1006.4
03 17.09 штиль 0 н/о н/о +26.0 +22.9 83 +35 +35 очень
душно
1012.3 1006.0
04 17.09 штиль 0 н/о н/о +25.7 +22.9 85 +34 +34 очень
душно
1011.4 1005.1
05 17.09 штиль 0 н/о н/о +25.6 +22.4 83 +34 +34 очень
душно
1010.9 1004.6
06 17.09 штиль 0 н/о н/о +25.8 +22.5 82 +34 +34 очень
душно
1010.8 1004.5
07 17.09 штиль 0 н/о н/о +25.7 +22.2 81 +33 +33 очень
душно
1011.2 1004.9
08 17.09 штиль 0 н/о н/о +25.6 +22.1 81 +33 +33 очень
душно
1011.4 1005.1
09 17.09 штиль 0 н/о н/о +25.6 +21.9 80 +33 +33 очень
душно
1012.0 1005.7
10 17.09 штиль 0 н/о н/о +26.3 +22.2 78 +34 +34 очень
душно
1012.7 1006.4
11 17.09 штиль 0 н/о н/о +26.9 +22.6 77 +35 +35 очень
душно
1013.4 1007.1
12 17.09 штиль 0 н/о н/о +28.1 +22.1 70 +37 +37 очень
душно
1013.8 1007.5
13 17.09 штиль 0 н/о н/о +28.5 +22.0 68 +37 +37 очень
душно
1013.9 1007.6
14 17.09 штиль 0 н/о н/о +28.9 +22.4 68 +38 +38 очень
душно
1013.5 1007.2
17 17.09 штиль 0 н/о н/о +32.0 +21.4 54 +40 +40 очень
душно
1010.8 1004.6
18 17.09 штиль 0 н/о н/о +31.1 +22.1 59 +40 +40 очень
душно
1010.3 1004.1
19 17.09 штиль 0 н/о н/о +29.9 +22.3 64 +39 +39 очень
душно
1010.1 1003.9
20 17.09 штиль 0 н/о н/о +28.7 +22.5 69 +38 +38 очень
душно
1010.2 1004.0
21 17.09 штиль 0 н/о н/о +27.2 +22.8 77 +36 +36 очень
душно
1010.4 1004.1
22 17.09 штиль 0 н/о н/о +26.5 +23.0 81 +35 +35 очень
душно
1010.9 1004.6
23 17.09 штиль 0 н/о н/о +26.1 +23.1 84 +35 +35 очень
душно
1011.4 1005.1
00 18.09 штиль 0 н/о н/о +26.0 +22.9 83 +35 +35 очень
душно
1012.0 1005.7
01 18.09 штиль 0 н/о н/о +25.8 +22.7 83 +34 +34 очень
душно
1012.3 1006.0
02 18.09 штиль 0 н/о н/о +25.7 +22.7 84 +34 +34 очень
душно
1012.1 1005.8
03 18.09 штиль 0 н/о н/о +25.4 +22.1 82 +33 +33 очень
душно
1011.6 1005.3
04 18.09 штиль 0 н/о н/о +25.6 +21.8 80 +33 +33 очень
душно
1010.9 1004.6
05 18.09 штиль 0 н/о н/о +25.6 +22.0 81 +33 +33 очень
душно
1010.4 1004.1
06 18.09 штиль 0 н/о н/о +25.4 +21.8 80 +33 +33 очень
душно
1010.3 1004.0
07 18.09 штиль 0 н/о н/о +25.2 +21.9 82 +32 +32 очень
душно
1010.4 1004.1
08 18.09 штиль 0 н/о н/о +25.1 +21.5 80 +32 +32 очень
душно
1010.5 1004.2
09 18.09 штиль 0 н/о н/о +25.2 +21.7 81 +32 +32 очень
душно
1010.9 1004.6
10 18.09 штиль 0 н/о н/о +26.0 +21.9 78 +33 +33 очень
душно
1011.4 1005.1
11 18.09 штиль 0 н/о н/о +27.5 +21.3 69 +35 +35 очень
душно
1011.6 1005.3
12 18.09 штиль 0 н/о н/о +28.4 +21.2 65 +36 +36 очень
душно
1012.2 1005.9
13 18.09 штиль 0 н/о н/о +29.2 +21.0 61 +36 +36 очень
душно
1012.5 1006.2
14 18.09 штиль 0 н/о н/о +29.8 +21.0 59 +37 +37 очень
душно
1012.1 1005.9
15 18.09 штиль 0 н/о н/о +30.7 +21.4 58 +39 +39 очень
душно
1011.4 1005.2
16 18.09 штиль 0 н/о н/о +30.6 +21.4 58 +39 +39 очень
душно
1010.8 1004.6
17 18.09 штиль 0 н/о н/о +30.5 +21.6 59 +39 +39 очень
душно
1010.2 1004.0
18 18.09 штиль 0 н/о н/о +30.4 +20.9 57 +38 +38 очень
душно
1009.7 1003.5
19 18.09 штиль 0 н/о н/о +29.8 +21.2 60 +37 +37 очень
душно
1009.6 1003.4
20 18.09 штиль 0 н/о н/о +28.5 +21.3 65 +36 +36 очень
душно
1010.0 1003.7
21 18.09 штиль 0 н/о н/о +26.9 +21.8 74 +35 +35 очень
душно
1010.2 1003.9
22 18.09 штиль 0 н/о н/о +26.2 +21.3 74 +33 +33 очень
душно
1010.5 1004.2
23 18.09 штиль 0 н/о н/о +25.9 +21.3 76 +33 +33 очень
душно
1011.1 1004.8
00 19.09 штиль 0 н/о н/о +25.7 +21.5 78 +33 +33 очень
душно
1011.7 1005.4
01 19.09 штиль 0 н/о н/о +25.5 +21.8 80 +33 +33 очень
душно
1012.0 1005.7
02 19.09 штиль 0 н/о н/о +25.3 +21.7 80 +32 +32 очень
душно
1011.7 1005.4
03 19.09 штиль 0 н/о н/о +25.1 +21.3 79 +32 +32 очень
душно
1011.1 1004.8
04 19.09 штиль 0 н/о н/о +25.1 +21.5 80 +32 +32 очень
душно
1010.7 1004.4
05 19.09 штиль 0 н/о н/о +25.0 +21.5 81 +32 +32 очень
душно
1010.3 1004.0
06 19.09 штиль 0 н/о н/о +24.9 +21.5 81 +32 +32 очень
душно
1010.0 1003.7
09 19.09 штиль 0 н/о н/о +24.5 +22.3 88 +32 +32 очень
душно
1010.5 1004.2
10 19.09 штиль 0 н/о н/о +25.6 +22.6 84 +34 +34 очень
душно
1011.3 1005.0
11 19.09 штиль 0 н/о н/о +26.9 +22.3 76 +35 +35 очень
душно
1011.7 1005.4
12 19.09 штиль 0 н/о н/о +28.5 +22.2 69 +37 +37 очень
душно
1012.2 1005.9
13 19.09 штиль 0 н/о н/о +29.0 +22.7 69 +38 +38 очень
душно
1012.4 1006.1
14 19.09 штиль 0 н/о н/о +29.2 +22.0 65 +38 +38 очень
душно
1012.2 1005.9
15 19.09 штиль 0 н/о н/о +30.9 +22.6 61 +40 +40 очень
душно
1011.5 1005.3
16 19.09 штиль 0 н/о н/о +31.4 +22.0 57 +40 +40 очень
душно
1010.8 1004.6
17 19.09 штиль 0 н/о н/о +31.7 +22.3 58 +41 +41 опасность
перегрева
1010.2 1004.0
18 19.09 штиль 0 н/о н/о +31.2 +21.8 57 +40 +40 очень
душно
1009.8 1003.6
19 19.09 штиль 0 н/о н/о +30.2 +23.1 66 +40 +40 очень
душно
1009.7 1003.5
20 19.09 штиль 0 н/о н/о +28.4 +22.5 70 +37 +37 очень
душно
1009.8 1003.5
21 19.09 штиль 0 н/о н/о +26.9 +22.2 75 +35 +35 очень
душно
1010.1 1003.8
22 19.09 штиль 0 н/о н/о +26.4 +22.9 81 +35 +35 очень
душно
1010.4 1004.1
23 19.09 штиль 0 н/о н/о +26.1 +23.2 84 +35 +35 очень
душно
1011.0 1004.7
00 20.09 штиль 0 н/о н/о +25.9 +23.0 84 +35 +35 очень
душно
1011.6 1005.3
01 20.09 штиль 0 н/о н/о +25.9 +22.8 83 +34 +34 очень
душно
1012.2 1005.9
02 20.09 штиль 0 н/о н/о +26.0 +22.8 83 +35 +35 очень
душно
1012.3 1006.0
03 20.09 штиль 0 н/о н/о +25.8 +22.7 83 +34 +34 очень
душно
1011.7 1005.4
04 20.09 штиль 0 н/о н/о +25.5 +22.3 82 +33 +33 очень
душно
1011.0 1004.7
05 20.09 штиль 0 н/о н/о +25.7 +22.5 83 +34 +34 очень
душно
1010.7 1004.4
06 20.09 штиль 0 н/о н/о +25.5 +22.3 82 +33 +33 очень
душно
1010.5 1004.2
07 20.09 штиль 0 н/о н/о +25.2 +22.2 83 +33 +33 очень
душно
1010.5 1004.2
08 20.09 штиль 0 н/о н/о +24.9 +22.5 87 +33 +33 очень
душно
1011.0 1004.7
09 20.09 штиль 0 н/о н/о +25.3 +22.1 82 +33 +33 очень
душно
1011.5 1005.2
10 20.09 штиль 0 н/о н/о +25.8 +22.3 81 +34 +34 очень
душно
1012.0 1005.7
12 20.09 штиль 0 н/о н/о +28.4 +21.8 67 +36 +36 очень
душно
1013.6 1007.3
14 20.09 штиль 0 н/о н/о +29.9 +23.2 67 +40 +40 очень
душно
1013.6 1007.4
15 20.09 штиль 0 н/о н/о +31.6 +22.0 57 +40 +40 очень
душно
1012.9 1006.7
16 20.09 штиль 0 н/о н/о +31.8 +22.1 57 +41 +41 опасность
перегрева
1012.1 1005.9
17 20.09 штиль 0 н/о н/о +31.9 +21.1 53 +40 +40 очень
душно
1011.2 1005.0
18 20.09 штиль 0 н/о н/о +30.2 +22.4 63 +39 +39 очень
душно
1010.3 1004.1
19 20.09 штиль 0 н/о н/о +29.0 +22.7 69 +38 +38 очень
душно
1010.4 1004.2
21 20.09 штиль 0 н/о н/о +27.0 +23.1 79 +36 +36 очень
душно
1011.3 1005.0
23 20.09 штиль 0 н/о н/о +26.4 +22.9 81 +35 +35 очень
душно
1012.1 1005.8
00 21.09 штиль 0 н/о н/о +26.4 +23.0 82 +35 +35 очень
душно
1012.7 1006.4

 

Местоположение метеостанции Сан-Луис (Мараньян, Бразилия): широта -2.53 долгота -44.22 высота над уровнем моря 58 м.

В архиве по умолчанию представлена погода в Сан-Луисе за последнюю неделю. Архивные данные за месяц целиком и за предыдущие месяцы, начиная с января 2011 года, Вы можете получить, выбрав интересующий диапазон дат из раскрывающегося списка и нажав кнопку "Ввод!".


*Определитесь, кто Вы:
робот инопланетянин человек

Внимание! Время в таблицах - всемирное. Для получения местного времени необходимо прибавить поправку, которая равна -3 ч.

Смотрите также архив погоды в соседних городах и на ближайших метеорологических станциях:

Погода в Сан-Луисе (Мараньян, Бразилия) (8 км)
Погода на Прегуике (Мараньян, Бразилия) (58 км)
Погода в Сантане (Амапа, Бразилия) (73 км)
Погода в Туриасу (Мараньян, Бразилия) (159 км)
Погода в Туриасу (Мараньян, Бразилия) (160 км)
Погода в Шападинье (Мараньян, Бразилия) (167 км)
Погода в Бакабале (Мараньян, Бразилия) (201 км)
Погода в Бакабале (Мараньян, Бразилия) (202 км)
Погода в Эсперантине (Пиауи, Бразилия) (265 км)
Погода в Кашиасе (Мараньян, Бразилия) (272 км)

Пояснения к столбцам:

Ветер - указаны скорость ветра в м/с - средняя за 10 мин, порывы в срок и между сроками (в фигурных скобках) и направление, откуда дует ветер: С - северный, СВ - северо-восточный, В - восточный, ЮВ - юго-восточный, Ю - южный, ЮЗ - юго-западный, З - западный, СЗ - северо-западный.
Видимость - горизонтальная дальность видимости в метрах или километрах. При видимости от 1 до 10 км при отсутствии осадков обычно наблюдается дымка, при ухудшении видимости до 1 км и менее - туман. В сухую погоду видимость может ухудшаться дымом, пылью или мглою.
Явления - указаны атмосферные явления, наблюдавшиеся в срок или в последний час перед сроком; фигурными скобками обозначены явления, наблюдавшиеся между сроками (за 1-3 часа до срока); квадратными скобками обозначены град или гололедные отложения с указанием их диаметра в мм.
Облачность - указаны через наклонную черту общая и нижняя облачность в баллах и высота нижней границы облаков в метрах; квадратными скобками обозначены формы облаков: Ci - перистые, Cs - перисто-слоистые, Cc - перисто-кучевые, Ac - высококучевые, As - высокослоистые, Sc - слоисто-кучевые, Ns - слоисто-дождевые, Cu - кучевые, Cb - кучево-дождевые. Подробнее классификацию облаков см. в Атласе облаков (PDF).
T - Температура воздуха - температура, измеренная на высоте 2 м над землей.
Td - Температура точки росы - температура, при понижении до которой содержащийся в воздухе водяной пар достигнет насыщения.
f - Относительная влажность воздуха - влажноcть воздуха, измеренная на высоте 2 м над землей.
Te - Эффективная температура - температура, которую ощущает одетый по сезону человек в тени. Характеристика душности погоды. При расчете учитывается влияние влажности воздуха и скорости ветра на теплоощущения человека.
Tes - Эффективная температура на солнце - температура, которую ощущает человек, с поправкой на солнечный нагрев. Характеристика знойности погоды. Зависит от высоты солнца над горизонтом, облачности и скорости ветра. Ночью, в пасмурную погоду, а также при ветре 12 м/с и более поправка равна нулю.
P - Атмосферное давление - приведенное к уровню моря атмосферное давление.
Po - Атмосферное давление - измеренное на уровне метеостанции атмосферное давление.
Tmin - Минимальная температура - минимум температуры воздуха на высоте 2 м над землей.
Tmax - Максимальная температура - максимум температуры воздуха на высоте 2 м над землей.
R - Количество осадков - Количество выпавших осадков за период времени, мм. При наведении курсора мыши на число - период времени, за который выпало указанное количество осадков.
R24 - Количество осадков - Количество выпавших осадков за 24 часа, мм.
S - Снежный покров - Высота снежного покрова, см. При наведении курсора мыши на число - состояние снежного покрова и степень покрытия местности в баллах.